Regional Weather Roundup
Issued by NWS

Home | Current Version | Previous Version | Text Only | Print | Product List | Glossary Off
Versions: 1 2 3 4 5 6 7 8 9 10 11 12 13 14 15 16 17 18 19 20 21 22 23 24 25 26 27 28 29 30 31 32 33 34 35 36 37 38 39 40 41 42 43 44 45 46 47 48 49 50

000
ASUS43 KDTX 212201
RWRMI
MICHIGAN HOURLY REGIONAL WEATHER ROUNDUP
NATIONAL WEATHER SERVICE DETROIT/PONTIAC MI
600 PM EDT THU MAY 21 2015

NOTE: "FAIR" INDICATES FEW OR NO CLOUDS BELOW 12,000 FEET WITH NO
SIGNIFICANT WEATHER AND/OR OBSTRUCTION TO VISIBILITY.

MIZ047>049-052>055-059>063-066>070-074>076-081>083-212300-
SOUTHEAST LOWER MICHIGAN

CITY           SKY/WX    TMP DP  RH WIND       PRES   REMARKS
ADRIAN         MOSUNNY   63  36  36 NW10      29.99F
ALMA           MOSUNNY   65  33  30 SW13G20   29.94S
ANN ARBOR      PTSUNNY   63  37  38 NW14      29.97S
BAD AXE        PTSUNNY   65  31  27 W13G21    29.88S
CARO           PTSUNNY   65  35  31 W12G20    29.89F
DETROIT CITY   CLOUDY    64  37  36 W10       29.95S
DETROIT        CLOUDY    65  39  38 NW14      29.96S
FLINT          PTSUNNY   67  34  29 NW17      29.94S
GROSSE ILE     CLOUDY    64  36  34 W10G17    29.95S
HILLSDALE      SUNNY     63  34  34 W15G25    30.00S
HOWELL         MOSUNNY   63  32  31 W10G21    29.96S

CITY           SKY/WX    TMP DP  RH WIND       PRES   REMARKS
JACKSON        MOSUNNY   62  36  37 W10G22    29.98S
LAMBERTVILLE   PTSUNNY   63  36  36 NW8G16    29.98F
LANSING        SUNNY     63  31  30 W21G26    29.98S
LAPEER         FAIR      64  32  30 W13G22    29.92S
MASON          SUNNY     61  32  33 NW13G24   29.97S
MONROE         CLOUDY    64  37  36 W13       29.96S
MT. CLEMENS    CLOUDY    65  36  35 W15       29.91S
PONTIAC        PTSUNNY   63  34  33 W16       29.94S
PORT HOPE        N/A     67  32  27 W8        29.85R
PORT HURON     PTSUNNY   64  39  39 W7        29.92S
TRI CITIES     MOSUNNY   69  32  25 W17       29.90F
MIDLAND        FAIR      70  31  23 W14       29.89S
TROY           CLOUDY    66  35  31 W10G20    29.96S
SAGINAW HB     PTSUNNY   70  32  24 W14G22    29.89F
$$
MIZ043>046-050>051-056>058-064>065-071>073-077>080-212300-
SOUTHWEST LOWER MICHIGAN

CITY           SKY/WX    TMP DP  RH WIND       PRES   REMARKS
BATTLE CREEK   SUNNY     62  32  32 W15G23    30.01F
BENTON HARBOR  SUNNY     61  38  42 W13       30.03F
BIG RAPIDS     SUNNY     65  31  28 SW14      29.92F
COLDWATER      MOSUNNY   62  32  32 W13       30.01S
FREMONT        FAIR      63  33  32 SW14      29.96S
HOLLAND        SUNNY     61  39  44 SW17      30.01F
GRAND RAPIDS   MOSUNNY   63  36  36 W15G21    29.99F
IONIA          FAIR      64  32  31 W15G26    29.97S
KALAMAZOO      SUNNY     63  33  32 W14       30.02F
LUDINGTON      SUNNY     61  36  39 S14G22    29.93F
MARSHALL       SUNNY     63  34  33 W13       29.99S
MOUNT PLEASANT PTSUNNY   65  32  28 W10       29.91S
MUSKEGON       MOSUNNY   58  38  47 S16G23    29.99S
SOUTH HAVEN    SUNNY     61  33  35 SW14      30.02F
$$
MIZ016>042-212300-
NORTHERN LOWER MICHIGAN

CITY           SKY/WX    TMP DP  RH WIND       PRES   REMARKS
ALPENA         MOSUNNY   66  34  30 NW15G25   29.85R
BEAVER ISLAND  SUNNY     55  31  39 NW10      29.96R
BELLAIRE       CLOUDY    58  32  38 NW6       29.95R
CADILLAC       CLOUDY    66  36  33 W12       29.91R
CHARLEVOIX     SUNNY     53  35  50 NW14      29.98R
FRANKFORT      CLOUDY    55  36  48 CALM      29.94F
GAYLORD        SUNNY     59  31  34 NW13G23   29.91R
HARBOR SPRINGS SUNNY     57  33  39 W16G23    29.92S
HOUGHTON LAKE  PTSUNNY   63  35  35 NW12G23   29.90R
MANISTEE       PTSUNNY   63  37  39 NW14G23   29.94R
OSCODA         PTSUNNY   69  33  26 NW17G23   29.83S
PELLSTON       SUNNY     59  30  33 NW24G30   29.92R
ROGERS CITY    SUNNY     61  33  36 NW15G30   29.87R
TRAVERSE CITY  PTSUNNY   59  35  40 N9        29.94R
$$
MIZ007>008-015-212300-
EASTERN UPPER MICHIGAN

CITY           SKY/WX    TMP DP  RH WIND       PRES   REMARKS
KINROSS        SUNNY     52  28  40 NW25G31   29.90R
NEWBERRY       SUNNY     53  27  37 NW17G24   29.95R
S. S. MARIE    SUNNY     50  30  46 NW17G30   29.91R
$$
MIZ004>006-011>014-085-212300-
CENTRAL UPPER MICHIGAN

CITY           SKY/WX    TMP DP  RH WIND       PRES   REMARKS
MANISTIQUE     SUNNY     56  24  29 N17G26    29.96R
ESCANABA       SUNNY     61  28  29 N10G21    29.95R
MENOMINEE      MOSUNNY   57  34  41 E10G20    29.95R
SAWYER-GWINN   SUNNY     54  27  35 NE17G25   29.98S
$$
MIZ001>003-009>011-084-212300-
WESTERN UPPER MICHIGAN

CITY           SKY/WX    TMP DP  RH WIND       PRES   REMARKS
IRON MOUNTAIN  PTSUNNY   67  32  27 N13G23    29.93R
HOUGHTON       SUNNY     57  29  34 N9        29.99S
COPPER HARBOR    N/A     48  31  51 N9        30.02R
IRONWOOD       SUNNY     61  30  31 N9        29.99S
$$

ABBREVIATIONS USED IN REMARKS
   TC - TEMPERATURE IN CELSIUS
  WCI - WIND CHILL INDEX
   HX - HEAT INDEX
  VSB - VISIBILITY




USA.gov is the U.S. government's official web portal to all federal, state and local government web resources and services.